#timestamp,LO_Frequency,Hit,StdDev 
1538312415.4,286047001.3,N
1538312435.2,286047001.3,N
1538312455.1,286047003.7,N
1538312456.0,286047003.7,N
1538312475.8,286047004.0,N
1538312495.6,286047004.1,N
1538312515.5,286047005.2,Y
1538312535.3,286047002.0,P
1538312555.1,286047001.3,N
1538312575.9,286047005.6,P
1538312595.7,286047004.7,N
1538312615.6,286047007.3,Y
1538312635.4,286047005.6,P
1538312655.2,286047005.9,P
1538312675.1,286047005.7,P
1538312676.0,286047005.7,Y
1538312695.8,286047001.0,P
1538312715.7,286047001.1,N
1538312735.5,286047000.8,N
1538312755.3,286047000.3,N
1538312775.2,286047002.5,N
1538312795.9,286047004.2,N
1538312815.7,286047003.8,N
1538312835.6,286047004.1,N
1538312855.4,286047003.1,N
1538312875.2,286047005.6,Y
1538312895.1,286047003.7,P
1538312896.0,286047003.7,P
1538312915.8,286047003.6,P
1538312935.7,286047006.0,Y
1538312955.5,286047000.0,P
1538312975.3,286047002.8,N
1538312995.2,286047001.3,N
1538313015.0,286047003.6,N
1538313015.9,286047003.6,N
1538313035.8,286047006.0,Y
1538313055.6,286047001.5,P
1538313075.4,286047003.1,P
1538313095.3,286047005.5,P
1538313115.1,286047005.4,Y
1538313135.8,286047002.2,P
1538313155.7,286047004.2,P
1538313175.5,286047005.9,P
1538313195.4,286047005.6,Y
1538313215.2,286047002.7,P
1538313235.0,286047001.3,N
1538313235.9,286047001.3,N
1538313255.8,286047001.8,N
1538313275.6,286047003.3,Y
1538313295.5,286047001.4,P
1538313315.3,286047003.5,P
1538313335.1,286047006.0,P
1538313355.9,286047006.7,Y
1538313375.7,286047004.1,P
1538313395.5,286047002.9,P
1538313415.4,286047004.9,P
1538313435.2,286047006.3,Y
1538313455.1,286047005.6,P
1538313456.0,286047005.6,P
1538313475.8,286047007.4,P
1538313495.6,286047006.5,Y
1538313515.5,286047001.6,P
1538313535.3,286047001.9,N
1538313555.1,286047003.9,N
1538313575.9,286047003.1,N
1538313595.7,286047005.4,Y
1538313615.6,286047004.2,P
1538313635.4,286047003.0,P
1538313655.2,286047002.9,P
1538313675.1,286047004.7,Y
1538313676.0,286047004.7,P
1538313695.8,286047011.9,P
1538313715.7,286047005.6,N
1538313735.5,286047005.3,N
1538313755.3,286047007.0,N
1538313775.2,286047006.7,N
1538313795.9,286047006.6,N
1538313815.7,286047008.6,Y
1538313835.6,286047004.0,P
1538313855.4,286047003.8,P
1538313875.3,286047003.3,N
1538313895.1,286047005.6,Y
1538313896.0,286047005.6,P
1538313915.8,286046999.8,N
1538313935.7,286047001.5,N
1538313955.5,286047001.4,N
1538313975.3,286047003.3,N
1538313995.2,286047005.7,N
1538314015.0,286047004.5,N
1538314015.9,286047004.5,N
1538314035.8,286047007.3,Y
1538314055.6,286047003.2,P
1538314075.4,286047004.9,P
1538314095.3,286047007.3,P
1538314115.1,286047006.2,Y
1538314135.8,286047004.0,P
1538314155.7,286047003.6,P
1538314175.5,286047005.4,P
1538314195.4,286047007.2,Y
1538314215.2,286047003.9,P
1538314235.0,286047006.0,P
1538314235.9,286047006.0,P
1538314255.8,286047004.8,Y
1538314275.6,286047001.6,P
1538314295.4,286047001.6,N
1538314315.3,286047003.6,N
1538314335.1,286047005.4,Y
1538314355.9,286047003.5,P
1538314375.7,286047005.5,P
1538314395.5,286047004.5,P
1538314415.4,286047008.8,Y
1538314435.2,286047007.2,P
1538314455.1,286047007.3,P
1538314456.0,286047007.3,P
1538314475.8,286047006.6,Y
1538314495.6,286046999.8,P
1538314515.5,286047002.1,N
1538314535.3,286047001.8,N
1538314555.1,286047003.7,N
1538314575.9,286047003.4,N
1538314595.7,286047003.0,N
1538314615.6,286047005.8,Y
1538314635.4,286047004.0,P
1538314655.2,286047001.4,N
1538314675.1,286047001.4,N
1538314676.0,286047001.4,N
1538314695.8,286047004.1,Y
1538314715.6,286047001.5,P
1538314735.5,286047004.4,P
1538314755.3,286047003.7,N
1538314775.2,286047001.6,N
1538314795.9,286047001.3,N
1538314815.7,286047003.1,N
1538314835.6,286047003.4,Y
1538314855.4,286047002.5,P
1538314875.2,286047002.6,P
1538314895.1,286047000.3,P
1538314896.0,286047000.3,N
1538314915.8,286047002.3,N
1538314935.7,286047000.2,N
1538314955.5,286047002.7,N
1538314975.3,286047002.5,N
1538314995.2,286047004.4,Y
1538315015.0,286047000.9,P
1538315015.9,286047000.9,N
1538315035.7,286047000.1,N
1538315055.6,286047002.7,Y
1538315075.4,286047000.0,P
1538315095.3,286046999.8,N
1538315115.1,286047000.3,N
1538315116.0,286047000.3,N
1538315135.8,286047002.7,Y
1538315155.7,286047001.6,P
1538315175.5,286047003.7,P
1538315195.4,286047002.2,N
1538315215.2,286046999.7,N
1538315235.0,286047001.9,N
1538315235.9,286047001.9,N
1538315255.8,286047002.2,N
1538315275.6,286047002.8,N
1538315295.4,286047002.2,N
1538315315.3,286047001.5,N
1538315335.1,286047001.5,N
1538315355.9,286047001.7,N
1538315375.7,286047003.8,Y
1538315395.5,286047002.8,P
1538315415.4,286047000.2,N
1538315435.2,286047000.2,N
1538315455.0,286047000.5,N
1538315455.9,286047000.5,N
1538315475.8,286047001.1,N
1538315495.6,286046998.5,N
1538315515.5,286046998.2,N
1538315535.3,286046999.0,N
1538315555.1,286047000.6,N
1538315575.9,286046998.5,N
1538315595.7,286046999.3,N
1538315615.5,286046998.9,N
1538315635.4,286046998.3,N
1538315655.2,286046999.0,N
1538315675.0,286046998.8,N
1538315676.0,286046998.8,N
1538315695.8,286047001.2,N
1538315715.6,286047000.8,N
1538315735.5,286047001.1,N
1538315755.3,286046998.6,N
1538315775.1,286047000.6,N
1538315795.9,286047000.7,N
1538315815.7,286047000.4,N
1538315835.5,286047002.4,N
1538315855.4,286047002.7,N
1538315875.2,286046999.8,N
1538315895.1,286047000.4,N
1538315896.0,286047000.4,N
1538315915.8,286047000.1,N
1538315935.6,286047000.3,N
1538315955.5,286047000.7,N
1538315975.3,286046999.9,N
1538315995.1,286047000.6,N
